Location: Caltech
(34.1382°N, 118.1253°W)
Time: 01:08:18
(UTC-08:00)

FENGYUN 3A - Visible Passes

Search period start: 24 November 2017 00:00
Search period end: 04 December 2017 00:00
Orbit: 819 x 833 km, 98.4° (Epoch: 23 November)

Date Brightness Start Highest point End Pass type
(mag) Time Alt. Az. Time Alt. Az. Time Alt. Az.
24 Nov 6.7 05:55:56 10° ENE 05:58:58 15° E 06:01:59 10° SE visible
24 Nov 4.9 17:15:12 10° ESE 17:18:50 19° ENE 17:22:28 10° NNE visible
24 Nov 4.5 18:53:26 10° S 18:58:38 49° W 19:03:52 10° NNW visible
25 Nov 3.8 18:34:18 10° S 18:39:41 75° WSW 18:45:06 10° NNW visible
26 Nov 3.5 18:15:25 10° SSE 18:20:47 73° ENE 18:26:11 10° N visible
26 Nov 6.7 19:59:55 10° WSW 20:01:27 11° W 20:03:00 10° WNW visible
27 Nov 3.8 17:56:47 10° SE 18:01:56 47° ENE 18:07:06 10° N visible
27 Nov 6.2 19:38:46 10° SW 19:42:21 18° W 19:45:58 10° NW visible
28 Nov 4.3 17:38:26 10° SE 17:43:08 31° ENE 17:47:51 10° N visible
28 Nov 5.6 19:18:44 10° SSW 19:23:18 27° W 19:27:52 10° NW visible
29 Nov 6.5 06:01:07 10° NE 06:04:39 18° E 06:08:09 10° SE visible
29 Nov 4.8 17:20:25 10° ESE 17:24:23 21° ENE 17:28:21 10° NNE visible
29 Nov 4.8 18:59:12 10° S 19:04:17 42° W 19:09:24 10° NNW visible
30 Nov 7.0 05:44:11 10° ENE 05:45:31 11° E 05:46:51 10° ESE visible
30 Nov 4.0 18:39:58 10° S 18:45:19 65° W 18:50:41 10° NNW visible
01 Dec 3.5 18:21:01 10° SSE 18:26:24 83° ENE 18:31:49 10° N visible
02 Dec 3.7 18:02:17 10° SSE 18:07:32 55° ENE 18:12:47 10° N visible
02 Dec 6.4 19:44:57 10° SW 19:48:02 15° W 19:51:08 10° WNW visible
03 Dec 4.1 17:43:50 10° SE 17:48:43 36° ENE 17:53:35 10° N visible
03 Dec 5.8 19:24:41 10° SSW 19:28:57 24° W 19:33:15 10° NW visible
